"Sample Date","Sample Time","Sample Value","Units","Flow Rate","Laser Status","Micron Size 0","Counts/Channel 0","Micron Size 1","Counts/Channel 1","Micron Size 2","Counts/Channel 2","Micron Size 3","Counts/Channel 3","Micron Size 4","Counts/Channel 4","Micron Size 5","Counts/Channel 5","Micron Size 6","Counts/Channel 6","Micron Size 7","Counts/Channel 7","Micron Size 8","Counts/Channel 8","Micron Size 9","Counts/Channel 9","Micron Size 10","Counts/Channel 10","Micron Size 11","Counts/Channel 11","Micron Size 12","Counts/Channel 12","Micron Size 13","Counts/Channel 13","Micron Size 14","Counts/Channel 14","Micron Size 15","Counts/Channel 15","Micron Size 16","Counts/Channel 16","Micron Size 17","Counts/Channel 17","Micron Size 18","Counts/Channel 18","Micron Size 19","Counts/Channel 19","Micron Size 20","Counts/Channel 20","Micron Size 21","Counts/Channel 21","Micron Size 22","Counts/Channel 22","Micron Size 23","Counts/Channel 23","Micron Size 24","Counts/Channel 24","Micron Size 25","Counts/Channel 25","Micron Size 26","Counts/Channel 26","Micron Size 27","Counts/Channel 27","Micron Size 28","Counts/Channel 28","Micron Size 29","Counts/Channel 29","Micron Size 30","Counts/Channel 30","Micron Size 31","Counts/Channel 31"
"05/03/07","12:00:04",44583.000,"cc",28315.281,1,0.100,35300.000,0.200,7977.000,0.300,1192.000,0.500,93.000,1.000,21.000,5.000,0
"05/03/07","12:00:10",44357.000,"cc",28311.563,1,0.100,35092.000,0.200,8032.000,0.300,1133.000,0.500,78.000,1.000,22.000,5.000,0
"05/03/07","12:00:16",44784.000,"cc",28382.311,1,0.100,35408.000,0.200,8055.000,0.300,1219.000,0.500,83.000,1.000,19.000,5.000,0
"05/03/07","12:00:22",44377.000,"cc",28324.393,1,0.100,35103.000,0.200,7988.000,0.300,1189.000,0.500,71.000,1.000,26.000,5.000,0
"05/03/07","12:00:28",44734.000,"cc",28295.338,1,0.100,35544.000,0.200,7900.000,0.300,1196.000,0.500,75.000,1.000,19.000,5.000,0
"05/03/07","12:00:34",44170.000,"cc",28274.951,1,0.100,34999.000,0.200,7930.000,0.300,1146.000,0.500,81.000,1.000,14.000,5.000,0
"05/03/07","12:00:40",44313.000,"cc",28316.170,1,0.100,35081.000,0.200,7941.000,0.300,1183.000,0.500,91.000,1.000,17.000,5.000,0
"05/03/07","12:00:46",43963.000,"cc",28322.389,1,0.100,34850.000,0.200,7885.000,0.300,1143.000,0.500,73.000,1.000,12.000,5.000,0
"05/03/07","12:00:52",43845.000,"cc",28341.131,1,0.100,34687.000,0.200,7960.000,0.300,1117.000,0.500,64.000,1.000,17.000,5.000,0
"05/03/07","12:00:58",44114.000,"cc",28300.379,1,0.100,34986.000,0.200,7857.000,0.300,1185.000,0.500,70.000,1.000,16.000,5.000,0
"05/03/07","12:01:04",44036.000,"cc",28289.285,1,0.100,34813.000,0.200,7967.000,0.300,1162.000,0.500,77.000,1.000,17.000,5.000,0
"05/03/07","12:01:10",43659.000,"cc",28300.875,1,0.100,34681.000,0.200,7823.000,0.300,1082.000,0.500,60.000,1.000,13.000,5.000,0
"05/03/07","12:01:16",43526.000,"cc",28350.145,1,0.100,34446.000,0.200,7771.000,0.300,1224.000,0.500,70.000,1.000,15.000,5.000,0
"05/03/07","12:01:22",43521.000,"cc",28331.475,1,0.100,34457.000,0.200,7783.000,0.300,1199.000,0.500,71.000,1.000,11.000,5.000,0
"05/03/07","12:01:28",43152.000,"cc",28352.547,1,0.100,34047.000,0.200,7915.000,0.300,1113.000,0.500,68.000,1.000,9.000,5.000,0
"05/03/07","12:01:34",43182.000,"cc",28295.211,1,0.100,34337.000,0.200,7703.000,0.300,1056.000,0.500,74.000,1.000,12.000,5.000,0
"05/03/07","12:01:40",42984.000,"cc",28353.875,1,0.100,33982.000,0.200,7825.000,0.300,1096.000,0.500,61.000,1.000,19.000,5.000,1.000
"05/03/07","12:01:46",42950.000,"cc",28259.791,1,0.100,33853.000,0.200,7876.000,0.300,1140.000,0.500,69.000,1.000,12.000,5.000,0
"05/03/07","12:01:52",43136.000,"cc",28301.963,1,0.100,34093.000,0.200,7784.000,0.300,1163.000,0.500,80.000,1.000,16.000,5.000,0
"05/03/07","12:01:58",43035.000,"cc",28350.602,1,0.100,33978.000,0.200,7845.000,0.300,1121.000,0.500,78.000,1.000,13.000,5.000,0
"05/03/07","12:02:04",42551.000,"cc",28307.565,1,0.100,33671.000,0.200,7594.000,0.300,1206.000,0.500,61.000,1.000,19.000,5.000,0
"05/03/07","12:02:10",42447.000,"cc",28333.682,1,0.100,33618.000,0.200,7546.000,0.300,1190.000,0.500,75.000,1.000,18.000,5.000,0
"05/03/07","12:02:16",42002.000,"cc",28319.264,1,0.100,33229.000,0.200,7589.000,0.300,1087.000,0.500,81.000,1.000,16.000,5.000,0
"05/03/07","12:02:22",41839.000,"cc",28336.488,1,0.100,33063.000,0.200,7560.000,0.300,1130.000,0.500,79.000,1.000,7.000,5.000,0
"05/03/07","12:02:28",41794.000,"cc",28285.543,1,0.100,33149.000,0.200,7449.000,0.300,1105.000,0.500,68.000,1.000,23.000,5.000,0
"05/03/07","12:02:34",41889.000,"cc",28300.809,1,0.100,33038.000,0.200,7564.000,0.300,1209.000,0.500,65.000,1.000,13.000,5.000,0
"05/03/07","12:02:40",41434.000,"cc",28306.508,1,0.100,32677.000,0.200,7551.000,0.300,1097.000,0.500,94.000,1.000,15.000,5.000,0
"05/03/07","12:02:46",41495.000,"cc",28335.486,1,0.100,32616.000,0.200,7621.000,0.300,1186.000,0.500,58.000,1.000,14.000,5.000,0
"05/03/07","12:02:52",41323.000,"cc",28286.107,1,0.100,32590.000,0.200,7572.000,0.300,1073.000,0.500,76.000,1.000,12.000,5.000,0
"05/03/07","12:02:58",41605.000,"cc",28328.490,1,0.100,32747.000,0.200,7703.000,0.300,1067.000,0.500,73.000,1.000,15.000,5.000,0
"05/03/07","12:03:04",41514.000,"cc",28349.467,1,0.100,32869.000,0.200,7447.000,0.300,1097.000,0.500,78.000,1.000,23.000,5.000,0
"05/03/07","12:03:10",40628.000,"cc",28348.600,1,0.100,31990.000,0.200,7417.000,0.300,1130.000,0.500,68.000,1.000,23.000,5.000,0
"05/03/07","12:03:16",40630.000,"cc",28313.522,1,0.100,32177.000,0.200,7267.000,0.300,1091.000,0.500,80.000,1.000,15.000,5.000,0
"05/03/07","12:03:22",40842.000,"cc",28264.594,1,0.100,32146.000,0.200,7542.000,0.300,1071.000,0.500,69.000,1.000,14.000,5.000,0
"05/03/07","12:03:28",40678.000,"cc",28290.486,1,0.100,32001.000,0.200,7444.000,0.300,1133.000,0.500,85.000,1.000,15.000,5.000,0
"05/03/07","12:03:34",40578.000,"cc",28389.418,1,0.100,31923.000,0.200,7378.000,0.300,1170.000,0.500,90.000,1.000,17.000,5.000,0
"05/03/07","12:03:40",40050.000,"cc",28303.065,1,0.100,31489.000,0.200,7341.000,0.300,1136.000,0.500,72.000,1.000,12.000,5.000,0
"05/03/07","12:03:46",39857.000,"cc",28283.846,1,0.100,31321.000,0.200,7308.000,0.300,1124.000,0.500,89.000,1.000,15.000,5.000,0
"05/03/07","12:03:52",40283.000,"cc",28309.449,1,0.100,31746.000,0.200,7340.000,0.300,1106.000,0.500,74.000,1.000,17.000,5.000,0
"05/03/07","12:03:58",39832.000,"cc",28341.938,1,0.100,31423.000,0.200,7233.000,0.300,1064.000,0.500,95.000,1.000,17.000,5.000,0
"05/03/07","12:04:04",39414.000,"cc",28353.389,1,0.100,31148.000,0.200,7118.000,0.300,1046.000,0.500,87.000,1.000,15.000,5.000,0
"05/03/07","12:04:10",39547.000,"cc",28251.297,1,0.100,31064.000,0.200,7332.000,0.300,1044.000,0.500,87.000,1.000,20.000,5.000,0
"05/03/07","12:04:16",39154.000,"cc",28306.586,1,0.100,30901.000,0.200,7027.000,0.300,1105.000,0.500,95.000,1.000,25.000,5.000,1.000
"05/03/07","12:04:22",39107.000,"cc",28391.170,1,0.100,30734.000,0.200,7185.000,0.300,1085.000,0.500,83.000,1.000,20.000,5.000,0
"05/03/07","12:04:28",39039.000,"cc",28318.203,1,0.100,30805.000,0.200,7033.000,0.300,1064.000,0.500,114.000,1.000,23.000,5.000,0
"05/03/07","12:04:34",38455.000,"cc",28297.420,1,0.100,30174.000,0.200,7060.000,0.300,1114.000,0.500,93.000,1.000,14.000,5.000,0
"05/03/07","12:04:40",38606.000,"cc",28317.250,1,0.100,30290.000,0.200,7029.000,0.300,1165.000,0.500,103.000,1.000,19.000,5.000,0
"05/03/07","12:04:46",38773.000,"cc",28290.223,1,0.100,30367.000,0.200,7214.000,0.300,1088.000,0.500,79.000,1.000,25.000,5.000,0
"05/03/07","12:04:52",38412.000,"cc",28319.945,1,0.100,30093.000,0.200,7062.000,0.300,1133.000,0.500,104.000,1.000,20.000,5.000,0
"05/03/07","12:04:58",38749.000,"cc",28320.385,1,0.100,30571.000,0.200,6971.000,0.300,1093.000,0.500,89.000,1.000,25.000,5.000,0
"05/03/07","12:05:04",39096.000,"cc",28323.074,1,0.100,30736.000,0.200,7135.000,0.300,1111.000,0.500,90.000,1.000,24.000,5.000,0
"05/03/07","12:05:10",38545.000,"cc",28311.318,1,0.100,30309.000,0.200,7002.000,0.300,1109.000,0.500,108.000,1.000,17.000,5.000,0
"05/03/07","12:05:16",38240.000,"cc",28362.203,1,0.100,30021.000,0.200,6985.000,0.300,1106.000,0.500,106.000,1.000,22.000,5.000,0
"05/03/07","12:05:22",38137.000,"cc",28256.107,1,0.100,29784.000,0.200,7143.000,0.300,1107.000,0.500,87.000,1.000,16.000,5.000,0
"05/03/07","12:05:28",38033.000,"cc",28310.395,1,0.100,29723.000,0.200,7089.000,0.300,1118.000,0.500,81.000,1.000,22.000,5.000,0
"05/03/07","12:05:34",37808.000,"cc",28321.875,1,0.100,29576.000,0.200,7021.000,0.300,1084.000,0.500,104.000,1.000,23.000,5.000,0
"05/03/07","12:05:40",37613.000,"cc",28311.000,1,0.100,29600.000,0.200,6809.000,0.300,1088.000,0.500,100.000,1.000,16.000,5.000,0
"05/03/07","12:05:46",37468.000,"cc",28398.932,1,0.100,29298.000,0.200,6910.000,0.300,1139.000,0.500,100.000,1.000,21.000,5.000,0
"05/03/07","12:05:52",37788.000,"cc",28305.430,1,0.100,29560.000,0.200,6995.000,0.300,1103.000,0.500,104.000,1.000,26.000,5.000,0
"05/03/07","12:05:58",37384.000,"cc",28283.418,1,0.100,29142.000,0.200,6993.000,0.300,1139.000,0.500,93.000,1.000,17.000,5.000,0
"05/03/07","12:06:04",37397.000,"cc",28314.236,1,0.100,29199.000,0.200,7020.000,0.300,1070.000,0.500,78.000,1.000,29.000,5.000,1.000
"05/03/07","12:06:10",37528.000,"cc",28334.420,1,0.100,29435.000,0.200,6948.000,0.300,1038.000,0.500,96.000,1.000,11.000,5.000,0
"05/03/07","12:06:16",37190.000,"cc",28277.867,1,0.100,29001.000,0.200,6944.000,0.300,1142.000,0.500,88.000,1.000,15.000,5.000,0
"05/03/07","12:06:22",37379.000,"cc",28281.762,1,0.100,29337.000,0.200,6872.000,0.300,1061.000,0.500,94.000,1.000,15.000,5.000,0
"05/03/07","12:06:28",36950.000,"cc",28304.215,1,0.100,28798.000,0.200,6955.000,0.300,1077.000,0.500,98.000,1.000,22.000,5.000,0
"05/03/07","12:06:34",36635.000,"cc",28386.738,1,0.100,28673.000,0.200,6806.000,0.300,1034.000,0.500,97.000,1.000,25.000,5.000,0
"05/03/07","12:06:40",36173.000,"cc",28355.482,1,0.100,28360.000,0.200,6663.000,0.300,1028.000,0.500,99.000,1.000,23.000,5.000,0
"05/03/07","12:06:46",35997.000,"cc",28265.029,1,0.100,28107.000,0.200,6687.000,0.300,1084.000,0.500,90.000,1.000,29.000,5.000,0
"05/03/07","12:06:52",35973.000,"cc",28360.141,1,0.100,27996.000,0.200,6758.000,0.300,1093.000,0.500,103.000,1.000,23.000,5.000,0
"05/03/07","12:06:58",35444.000,"cc",28319.545,1,0.100,27696.000,0.200,6620.000,0.300,1019.000,0.500,94.000,1.000,15.000,5.000,0
"05/03/07","12:07:04",35401.000,"cc",28267.666,1,0.100,27604.000,0.200,6654.000,0.300,1036.000,0.500,79.000,1.000,28.000,5.000,0
"05/03/07","12:07:10",35240.000,"cc",28290.654,1,0.100,27509.000,0.200,6583.000,0.300,1043.000,0.500,85.000,1.000,20.000,5.000,0
"05/03/07","12:07:16",35903.000,"cc",28323.932,1,0.100,27925.000,0.200,6780.000,0.300,1067.000,0.500,104.000,1.000,27.000,5.000,0
"05/03/07","12:07:22",35442.000,"cc",28383.600,1,0.100,27592.000,0.200,6723.000,0.300,1015.000,0.500,89.000,1.000,23.000,5.000,0
"05/03/07","12:07:28",35579.000,"cc",28309.654,1,0.100,27783.000,0.200,6656.000,0.300,1044.000,0.500,74.000,1.000,22.000,5.000,0
"05/03/07","12:07:34",35473.000,"cc",28322.520,1,0.100,27662.000,0.200,6642.000,0.300,1056.000,0.500,96.000,1.000,17.000,5.000,0
"05/03/07","12:07:40",35409.000,"cc",28283.648,1,0.100,27653.000,0.200,6575.000,0.300,1074.000,0.500,85.000,1.000,22.000,5.000,0
"05/03/07","12:07:46",35032.000,"cc",28321.631,1,0.100,27290.000,0.200,6644.000,0.300,997.000,0.500,85.000,1.000,16.000,5.000,0
"05/03/07","12:07:52",35104.000,"cc",28291.393,1,0.100,27499.000,0.200,6494.000,0.300,1012.000,0.500,88.000,1.000,11.000,5.000,0
"05/03/07","12:07:58",34910.000,"cc",28337.637,1,0.100,27221.000,0.200,6581.000,0.300,1007.000,0.500,84.000,1.000,17.000,5.000,0
"05/03/07","12:08:04",34869.000,"cc",28303.824,1,0.100,27273.000,0.200,6458.000,0.300,1023.000,0.500,99.000,1.000,16.000,5.000,0
"05/03/07","12:08:10",34606.000,"cc",28330.973,1,0.100,26995.000,0.200,6526.000,0.300,979.000,0.500,88.000,1.000,18.000,5.000,0
"05/03/07","12:08:16",34691.000,"cc",28330.154,1,0.100,27006.000,0.200,6543.000,0.300,1022.000,0.500,93.000,1.000,27.000,5.000,0
"05/03/07","12:08:22",34623.000,"cc",28352.895,1,0.100,26920.000,0.200,6534.000,0.300,1049.000,0.500,100.000,1.000,20.000,5.000,0
"05/03/07","12:08:28",33751.000,"cc",28245.938,1,0.100,26445.000,0.200,6250.000,0.300,956.000,0.500,84.000,1.000,16.000,5.000,0
"05/03/07","12:08:34",33837.000,"cc",28323.408,1,0.100,26276.000,0.200,6467.000,0.300,980.000,0.500,99.000,1.000,15.000,5.000,0
"05/03/07","12:08:40",33809.000,"cc",28328.641,1,0.100,26442.000,0.200,6310.000,0.300,959.000,0.500,79.000,1.000,19.000,5.000,0
"05/03/07","12:08:46",34147.000,"cc",28295.830,1,0.100,26680.000,0.200,6406.000,0.300,956.000,0.500,80.000,1.000,25.000,5.000,0
"05/03/07","12:08:52",33597.000,"cc",28367.500,1,0.100,26181.000,0.200,6332.000,0.300,979.000,0.500,87.000,1.000,18.000,5.000,0
"05/03/07","12:08:58",33329.000,"cc",28305.604,1,0.100,26137.000,0.200,6173.000,0.300,908.000,0.500,93.000,1.000,18.000,5.000,0
"05/03/07","12:09:04",33629.000,"cc",28332.127,1,0.100,26308.000,0.200,6330.000,0.300,901.000,0.500,69.000,1.000,21.000,5.000,0
"05/03/07","12:09:10",33329.000,"cc",28328.910,1,0.100,26056.000,0.200,6249.000,0.300,926.000,0.500,84.000,1.000,14.000,5.000,0
"05/03/07","12:09:16",33083.000,"cc",28264.344,1,0.100,25699.000,0.200,6320.000,0.300,973.000,0.500,72.000,1.000,19.000,5.000,0
"05/03/07","12:09:22",33084.000,"cc",28312.846,1,0.100,25985.000,0.200,6062.000,0.300,936.000,0.500,83.000,1.000,18.000,5.000,0
"05/03/07","12:09:28",33090.000,"cc",28310.299,1,0.100,25966.000,0.200,6100.000,0.300,927.000,0.500,85.000,1.000,12.000,5.000,0
"05/03/07","12:09:34",32695.000,"cc",28344.721,1,0.100,25412.000,0.200,6209.000,0.300,984.000,0.500,76.000,1.000,14.000,5.000,0
"05/03/07","12:09:40",32943.000,"cc",28351.471,1,0.100,25791.000,0.200,6169.000,0.300,891.000,0.500,78.000,1.000,14.000,5.000,0
"05/03/07","12:09:46",32750.000,"cc",28260.232,1,0.100,25575.000,0.200,6157.000,0.300,928.000,0.500,71.000,1.000,19.000,5.000,0
"05/03/07","12:09:52",32694.000,"cc",28303.721,1,0.100,25547.000,0.200,6186.000,0.300,875.000,0.500,75.000,1.000,11.000,5.000,0
"05/03/07","12:09:58",32496.000,"cc",28332.934,1,0.100,25178.000,0.200,6253.000,0.300,987.000,0.500,65.000,1.000,13.000,5.000,0
"05/03/07","12:10:04",32469.000,"cc",28325.758,1,0.100,25215.000,0.200,6209.000,0.300,953.000,0.500,81.000,1.000,11.000,5.000,0
"05/03/07","12:10:10",32332.000,"cc",28304.535,1,0.100,25233.000,0.200,6128.000,0.300,878.000,0.500,72.000,1.000,21.000,5.000,0
"05/03/07","12:10:16",32021.000,"cc",28301.709,1,0.100,25113.000,0.200,5914.000,0.300,904.000,0.500,78.000,1.000,12.000,5.000,0
"05/03/07","12:10:22",31961.000,"cc",28334.229,1,0.100,24884.000,0.200,6096.000,0.300,896.000,0.500,71.000,1.000,14.000,5.000,0
"05/03/07","12:10:28",32094.000,"cc",28314.447,1,0.100,25076.000,0.200,6051.000,0.300,878.000,0.500,71.000,1.000,18.000,5.000,0
"05/03/07","12:10:34",31731.000,"cc",28278.207,1,0.100,24752.000,0.200,6002.000,0.300,910.000,0.500,53.000,1.000,14.000,5.000,0
"05/03/07","12:10:40",32060.000,"cc",28369.561,1,0.100,25018.000,0.200,6063.000,0.300,869.000,0.500,96.000,1.000,14.000,5.000,0
"05/03/07","12:10:46",31455.000,"cc",28359.936,1,0.100,24521.000,0.200,5923.000,0.300,943.000,0.500,52.000,1.000,16.000,5.000,0
"05/03/07","12:10:52",31600.000,"cc",28293.289,1,0.100,24663.000,0.200,6039.000,0.300,832.000,0.500,62.000,1.000,4.000,5.000,0
"05/03/07","12:10:58",31274.000,"cc",28299.713,1,0.100,24295.000,0.200,6017.000,0.300,881.000,0.500,68.000,1.000,13.000,5.000,0
"05/03/07","12:11:04",31996.000,"cc",28269.244,1,0.100,25039.000,0.200,5971.000,0.300,907.000,0.500,70.000,1.000,9.000,5.000,0
"05/03/07","12:11:10",31302.000,"cc",28314.022,1,0.100,24338.000,0.200,6078.000,0.300,801.000,0.500,76.000,1.000,9.000,5.000,0
"05/03/07","12:11:16",31223.000,"cc",28360.369,1,0.100,24256.000,0.200,5981.000,0.300,914.000,0.500,60.000,1.000,12.000,5.000,0
"05/03/07","12:11:22",31282.000,"cc",28330.356,1,0.100,24479.000,0.200,5874.000,0.300,842.000,0.500,80.000,1.000,7.000,5.000,0
"05/03/07","12:11:28",30822.000,"cc",28292.758,1,0.100,24003.000,0.200,5795.000,0.300,925.000,0.500,83.000,1.000,16.000,5.000,0
"05/03/07","12:11:34",30863.000,"cc",28280.906,1,0.100,24045.000,0.200,5858.000,0.300,874.000,0.500,72.000,1.000,14.000,5.000,0
"05/03/07","12:11:40",31220.000,"cc",28337.793,1,0.100,24299.000,0.200,5953.000,0.300,883.000,0.500,72.000,1.000,13.000,5.000,0
"05/03/07","12:11:46",30802.000,"cc",28348.357,1,0.100,23855.000,0.200,5995.000,0.300,854.000,0.500,82.000,1.000,16.000,5.000,0
"05/03/07","12:11:52",30609.000,"cc",28308.336,1,0.100,23802.000,0.200,5929.000,0.300,807.000,0.500,61.000,1.000,10.000,5.000,0
"05/03/07","12:11:58",30317.000,"cc",28291.492,1,0.100,23540.000,0.200,5864.000,0.300,833.000,0.500,69.000,1.000,11.000,5.000,0
"05/03/07","12:12:04",30584.000,"cc",28311.471,1,0.100,23929.000,0.200,5724.000,0.300,838.000,0.500,82.000,1.000,11.000,5.000,0
"05/03/07","12:12:10",29819.000,"cc",28351.385,1,0.100,23217.000,0.200,5639.000,0.300,871.000,0.500,79.000,1.000,13.000,5.000,0
"05/03/07","12:12:16",30142.000,"cc",28331.764,1,0.100,23345.000,0.200,5885.000,0.300,831.000,0.500,72.000,1.000,9.000,5.000,0
"05/03/07","12:12:22",29801.000,"cc",28366.705,1,0.100,23252.000,0.200,5625.000,0.300,847.000,0.500,63.000,1.000,14.000,5.000,0
"05/03/07","12:12:28",29883.000,"cc",28281.514,1,0.100,23297.000,0.200,5720.000,0.300,751.000,0.500,91.000,1.000,24.000,5.000,0
"05/03/07","12:12:34",29528.000,"cc",28287.006,1,0.100,22991.000,0.200,5633.000,0.300,822.000,0.500,73.000,1.000,9.000,5.000,0
"05/03/07","12:12:40",29840.000,"cc",28330.387,1,0.100,23091.000,0.200,5831.000,0.300,831.000,0.500,71.000,1.000,16.000,5.000,0
"05/03/07","12:12:46",29328.000,"cc",28307.193,1,0.100,22831.000,0.200,5627.000,0.300,785.000,0.500,71.000,1.000,14.000,5.000,0
"05/03/07","12:12:52",29455.000,"cc",28294.525,1,0.100,22841.000,0.200,5707.000,0.300,784.000,0.500,97.000,1.000,26.000,5.000,0
"05/03/07","12:12:58",29158.000,"cc",28332.664,1,0.100,22557.000,0.200,5702.000,0.300,790.000,0.500,96.000,1.000,13.000,5.000,0
"05/03/07","12:13:04",29114.000,"cc",28337.143,1,0.100,22667.000,0.200,5587.000,0.300,765.000,0.500,78.000,1.000,17.000,5.000,0
"05/03/07","12:13:10",28674.000,"cc",28292.977,1,0.100,22285.000,0.200,5489.000,0.300,813.000,0.500,71.000,1.000,16.000,5.000,0
"05/03/07","12:13:16",28962.000,"cc",28321.943,1,0.100,22592.000,0.200,5542.000,0.300,748.000,0.500,67.000,1.000,13.000,5.000,0
"05/03/07","12:13:22",28523.000,"cc",28276.617,1,0.100,22253.000,0.200,5380.000,0.300,793.000,0.500,81.000,1.000,16.000,5.000,0
"05/03/07","12:13:28",28312.000,"cc",28340.131,1,0.100,21990.000,0.200,5446.000,0.300,773.000,0.500,88.000,1.000,15.000,5.000,0
"05/03/07","12:13:34",28773.000,"cc",28331.344,1,0.100,22275.000,0.200,5578.000,0.300,816.000,0.500,83.000,1.000,21.000,5.000,0
"05/03/07","12:13:40",28574.000,"cc",28307.311,1,0.100,22152.000,0.200,5578.000,0.300,744.000,0.500,80.000,1.000,20.000,5.000,0
"05/03/07","12:13:46",28267.000,"cc",28321.373,1,0.100,22007.000,0.200,5383.000,0.300,766.000,0.500,94.000,1.000,17.000,5.000,0
"05/03/07","12:13:52",28118.000,"cc",28340.928,1,0.100,21942.000,0.200,5371.000,0.300,726.000,0.500,64.000,1.000,15.000,5.000,0
"05/03/07","12:13:58",27967.000,"cc",28291.688,1,0.100,21702.000,0.200,5373.000,0.300,808.000,0.500,68.000,1.000,16.000,5.000,0
"05/03/07","12:14:04",28031.000,"cc",28309.414,1,0.100,21829.000,0.200,5357.000,0.300,763.000,0.500,67.000,1.000,15.000,5.000,0
"05/03/07","12:14:10",27866.000,"cc",28293.041,1,0.100,21659.000,0.200,5342.000,0.300,782.000,0.500,74.000,1.000,9.000,5.000,0
"05/03/07","12:14:16",27852.000,"cc",28376.143,1,0.100,21538.000,0.200,5436.000,0.300,777.000,0.500,76.000,1.000,25.000,5.000,0
"05/03/07","12:14:22",27808.000,"cc",28323.133,1,0.100,21676.000,0.200,5291.000,0.300,737.000,0.500,82.000,1.000,22.000,5.000,0
"05/03/07","12:14:28",27468.000,"cc",28297.309,1,0.100,21340.000,0.200,5276.000,0.300,746.000,0.500,81.000,1.000,25.000,5.000,0
"05/03/07","12:14:34",27042.000,"cc",28327.457,1,0.100,20915.000,0.200,5257.000,0.300,766.000,0.500,81.000,1.000,23.000,5.000,0
"05/03/07","12:14:40",27295.000,"cc",28284.645,1,0.100,21234.000,0.200,5246.000,0.300,713.000,0.500,89.000,1.000,13.000,5.000,0
"05/03/07","12:14:46",27011.000,"cc",28317.279,1,0.100,20996.000,0.200,5257.000,0.300,666.000,0.500,78.000,1.000,14.000,5.000,0
"05/03/07","12:14:52",26746.000,"cc",28330.977,1,0.100,20717.000,0.200,5163.000,0.300,737.000,0.500,96.000,1.000,33.000,5.000,0
"05/03/07","12:14:58",26562.000,"cc",28339.479,1,0.100,20639.000,0.200,5128.000,0.300,714.000,0.500,68.000,1.000,13.000,5.000,0
"05/03/07","12:15:04",26132.000,"cc",28348.803,1,0.100,20294.000,0.200,5069.000,0.300,666.000,0.500,87.000,1.000,16.000,5.000,0
"05/03/07","12:15:10",26093.000,"cc",28295.029,1,0.100,20237.000,0.200,5046.000,0.300,715.000,0.500,73.000,1.000,22.000,5.000,0
"05/03/07","12:15:16",25440.000,"cc",28286.510,1,0.100,19679.000,0.200,4977.000,0.300,689.000,0.500,75.000,1.000,20.000,5.000,0
"05/03/07","12:15:22",25885.000,"cc",28305.447,1,0.100,20097.000,0.200,4969.000,0.300,691.000,0.500,98.000,1.000,30.000,5.000,0
"05/03/07","12:15:28",25977.000,"cc",28318.826,1,0.100,20163.000,0.200,4972.000,0.300,719.000,0.500,100.000,1.000,23.000,5.000,0
"05/03/07","12:15:34",25758.000,"cc",28305.385,1,0.100,19986.000,0.200,4950.000,0.300,691.000,0.500,102.000,1.000,29.000,5.000,0
"05/03/07","12:15:40",25448.000,"cc",28312.535,1,0.100,19681.000,0.200,4961.000,0.300,688.000,0.500,90.000,1.000,28.000,5.000,0
"05/03/07","12:15:46",25189.000,"cc",28352.045,1,0.100,19429.000,0.200,4980.000,0.300,650.000,0.500,101.000,1.000,29.000,5.000,0
"05/03/07","12:15:52",25010.000,"cc",28304.057,1,0.100,19489.000,0.200,4731.000,0.300,659.000,0.500,103.000,1.000,28.000,5.000,0
"05/03/07","12:15:58",25023.000,"cc",28274.102,1,0.100,19379.000,0.200,4821.000,0.300,713.000,0.500,84.000,1.000,26.000,5.000,0
"05/03/07","12:16:04",24750.000,"cc",28331.205,1,0.100,19133.000,0.200,4837.000,0.300,657.000,0.500,95.000,1.000,28.000,5.000,0
"05/03/07","12:16:10",24681.000,"cc",28348.951,1,0.100,19050.000,0.200,4816.000,0.300,696.000,0.500,90.000,1.000,29.000,5.000,0
"05/03/07","12:16:16",24571.000,"cc",28305.664,1,0.100,19055.000,0.200,4772.000,0.300,651.000,0.500,72.000,1.000,21.000,5.000,0
"05/03/07","12:16:22",24748.000,"cc",28324.281,1,0.100,19174.000,0.200,4826.000,0.300,664.000,0.500,67.000,1.000,17.000,5.000,0
"05/03/07","12:16:28",24680.000,"cc",28285.424,1,0.100,19075.000,0.200,4811.000,0.300,700.000,0.500,73.000,1.000,21.000,5.000,0
"05/03/07","12:16:34",24442.000,"cc",28316.725,1,0.100,18933.000,0.200,4790.000,0.300,646.000,0.500,61.000,1.000,12.000,5.000,0
"05/03/07","12:16:40",24453.000,"cc",28300.311,1,0.100,18944.000,0.200,4784.000,0.300,628.000,0.500,82.000,1.000,15.000,5.000,0
"05/03/07","12:16:46",24221.000,"cc",28345.621,1,0.100,18767.000,0.200,4693.000,0.300,676.000,0.500,70.000,1.000,15.000,5.000,0
"05/03/07","12:16:52",24185.000,"cc",28317.768,1,0.100,18799.000,0.200,4640.000,0.300,673.000,0.500,61.000,1.000,12.000,5.000,0
"05/03/07","12:16:58",24240.000,"cc",28342.428,1,0.100,18746.000,0.200,4780.000,0.300,618.000,0.500,75.000,1.000,21.000,5.000,0
"05/03/07","12:17:04",23919.000,"cc",28261.100,1,0.100,18643.000,0.200,4540.000,0.300,638.000,0.500,74.000,1.000,24.000,5.000,0
"05/03/07","12:17:10",23970.000,"cc",28314.481,1,0.100,18605.000,0.200,4641.000,0.300,620.000,0.500,75.000,1.000,29.000,5.000,0
"05/03/07","12:17:16",23834.000,"cc",28335.203,1,0.100,18510.000,0.200,4567.000,0.300,650.000,0.500,83.000,1.000,24.000,5.000,0
"05/03/07","12:17:22",23509.000,"cc",28309.352,1,0.100,18102.000,0.200,4639.000,0.300,657.000,0.500,83.000,1.000,28.000,5.000,0
"05/03/07","12:17:28",23540.000,"cc",28295.826,1,0.100,18043.000,0.200,4715.000,0.300,659.000,0.500,90.000,1.000,33.000,5.000,0